TimeMDT,TemperatureF,Dew PointF,Humidity,Sea Level PressureIn,VisibilityMPH,Wind Direction,Wind SpeedMPH,Gust SpeedMPH,PrecipitationIn,Events,Conditions,WindDirDegrees,DateUTC
12:21 AM,23.0,17.6,80,29.83,2.5,North,24.2,-,0.00,Snow,Light Snow,350,2013-04-09 06:21:00
12:25 AM,21.2,17.6,86,29.83,3.0,North,24.2,-,0.00,Snow,Light Snow,350,2013-04-09 06:25:00
12:45 AM,21.2,17.6,86,29.84,8.0,North,24.2,-,0.00,,Overcast,350,2013-04-09 06:45:00
12:53 AM,21.9,16.0,78,29.77,9.0,North,20.7,-,0.00,,Overcast,350,2013-04-09 06:53:00
1:24 AM,21.2,15.8,80,29.88,5.0,North,24.2,-,N/A,,Haze,350,2013-04-09 07:24:00
1:36 AM,19.4,15.8,86,29.88,6.0,North,25.3,31.1,0.00,,Overcast,10,2013-04-09 07:36:00
1:53 AM,19.9,14.0,78,29.77,6.0,NNE,31.1,-,0.00,Snow,Light Snow,20,2013-04-09 07:53:00
2:02 AM,19.4,14.0,80,29.85,2.5,NNE,31.1,-,0.00,Snow,Light Snow,20,2013-04-09 08:02:00
2:11 AM,19.4,14.0,80,29.83,3.0,NNE,33.4,-,0.00,Snow,Light Snow,20,2013-04-09 08:11:00
2:15 AM,19.4,14.0,80,29.84,2.5,NNE,33.4,-,0.00,Snow,Light Snow,20,2013-04-09 08:15:00
2:27 AM,19.4,14.0,80,29.85,1.2,NNE,33.4,-,0.00,Snow,Light Snow,20,2013-04-09 08:27:00
2:40 AM,19.4,14.0,80,29.87,0.8,NNE,33.4,-,0.00,Snow,Light Snow,20,2013-04-09 08:40:00
2:53 AM,19.0,14.0,81,29.82,0.8,North,20.7,25.3,0.01,Snow,Light Snow,350,2013-04-09 08:53:00
3:53 AM,17.1,12.0,81,29.85,0.8,North,25.3,-,0.02,Snow,Light Snow,10,2013-04-09 09:53:00
4:25 AM,17.6,10.4,73,29.93,0.2,NNE,19.6,-,0.01,Snow,Snow,20,2013-04-09 10:25:00
4:34 AM,17.6,12.2,79,29.93,0.5,NNE,19.6,-,0.02,Snow,Snow,20,2013-04-09 10:34:00
4:41 AM,15.8,10.4,79,29.93,1.0,NNE,19.6,-,0.02,Snow,Light Snow,20,2013-04-09 10:41:00
4:49 AM,15.8,10.4,79,29.93,1.2,North,24.2,-,0.02,Snow,Light Snow,10,2013-04-09 10:49:00
4:53 AM,16.0,10.9,81,29.88,1.0,North,24.2,-,0.02,Snow,Light Snow,10,2013-04-09 10:53:00
5:15 AM,15.8,10.4,79,29.94,2.0,North,23.0,-,0.00,Snow,Light Snow,10,2013-04-09 11:15:00
5:23 AM,15.8,10.4,79,29.94,1.8,North,23.0,-,0.00,Snow,Light Snow,10,2013-04-09 11:23:00
5:47 AM,15.8,10.4,79,29.95,0.8,North,28.8,-,0.00,Snow,Light Snow,360,2013-04-09 11:47:00
5:53 AM,15.1,10.0,80,29.96,0.8,North,28.8,-,0.00,Snow,Light Snow,360,2013-04-09 11:53:00
6:01 AM,15.8,10.4,79,29.95,1.5,North,29.9,-,0.00,Snow,Light Snow,350,2013-04-09 12:01:00
6:11 AM,15.8,8.6,73,29.95,2.5,North,29.9,-,0.00,Snow,Light Snow,350,2013-04-09 12:11:00
6:41 AM,15.8,10.4,79,29.97,1.5,NNW,21.9,-,0.00,Snow,Light Snow,340,2013-04-09 12:41:00
6:53 AM,15.1,10.0,80,30.05,2.0,North,17.3,-,0.00,Snow,Light Snow,350,2013-04-09 12:53:00
7:00 AM,15.8,10.4,79,30.01,1.5,North,18.4,-,0.00,Snow,Light Snow,350,2013-04-09 13:00:00
7:53 AM,15.1,10.0,80,30.09,1.2,North,18.4,-,0.00,Snow,Light Snow,350,2013-04-09 13:53:00
8:13 AM,15.8,10.4,79,29.99,1.0,North,24.2,28.8,0.00,Snow,Light Snow,350,2013-04-09 14:13:00
8:26 AM,15.8,8.6,73,30.02,0.8,North,21.9,-,0.00,Snow,Light Snow,350,2013-04-09 14:26:00
8:53 AM,15.1,9.0,77,30.12,0.5,North,20.7,-,0.00,Fog-Snow,Snow,360,2013-04-09 14:53:00
9:26 AM,15.8,8.6,73,30.02,0.5,North,17.3,23.0,0.00,Fog-Snow,Snow,350,2013-04-09 15:26:00
9:30 AM,15.8,8.6,73,30.01,0.2,NNW,23.0,-,0.00,Fog-Snow,Snow,340,2013-04-09 15:30:00
9:34 AM,14.0,8.6,79,30.02,0.5,North,20.7,25.3,0.00,Fog-Snow,Snow,350,2013-04-09 15:34:00
9:53 AM,15.1,9.0,77,30.15,0.8,North,16.1,-,0.00,Snow,Light Snow,350,2013-04-09 15:53:00
10:53 AM,14.0,8.1,77,30.14,0.5,North,25.3,-,0.00,Fog-Snow,Snow,360,2013-04-09 16:53:00
11:53 AM,15.1,8.1,74,30.16,0.5,North,26.5,-,0.00,Fog-Snow,Snow,360,2013-04-09 17:53:00
12:09 PM,15.8,8.6,73,30.05,0.8,North,20.7,26.5,N/A,Snow,Light Snow,360,2013-04-09 18:09:00
12:36 PM,15.8,8.6,73,30.04,0.2,North,17.3,-,0.01,Fog-Snow,Snow,360,2013-04-09 18:36:00
12:48 PM,15.8,8.6,73,30.04,0.5,North,26.5,-,0.01,Fog-Snow,Snow,360,2013-04-09 18:48:00
12:53 PM,15.1,8.1,74,30.17,0.5,North,21.9,29.9,0.01,Fog-Snow,Light Snow,360,2013-04-09 18:53:00
1:53 PM,15.1,8.1,74,30.18,0.8,North,20.7,-,0.00,Snow,Light Snow,10,2013-04-09 19:53:00
2:03 PM,15.8,8.6,73,30.03,0.2,North,23.0,27.6,0.00,Snow,Light Snow,10,2013-04-09 20:03:00
2:08 PM,15.8,8.6,73,30.04,1.0,North,24.2,-,0.00,Snow,Light Snow,360,2013-04-09 20:08:00
2:23 PM,15.8,6.8,68,30.04,1.0,NNE,25.3,-,0.00,Snow,Light Snow,20,2013-04-09 20:23:00
2:40 PM,14.0,6.8,73,30.03,1.0,North,25.3,-,0.00,Snow,Light Snow,10,2013-04-09 20:40:00
2:53 PM,14.0,6.1,71,30.19,1.0,NNE,20.7,-,0.00,Snow,Light Snow,20,2013-04-09 20:53:00
3:27 PM,14.0,6.8,73,30.03,0.5,North,32.2,-,0.00,Snow,Light Snow,360,2013-04-09 21:27:00
3:29 PM,14.0,8.6,79,30.03,0.5,North,32.2,-,0.00,Snow,Light Snow,360,2013-04-09 21:29:00
3:44 PM,14.0,6.8,73,30.07,1.0,North,32.2,-,0.00,Snow,Light Snow,360,2013-04-09 21:44:00
3:53 PM,14.0,7.0,74,30.22,1.0,North,18.4,-,0.00,Snow,Light Snow,360,2013-04-09 21:53:00
3:58 PM,12.2,6.8,79,30.06,0.8,North,24.2,-,0.00,Snow,Light Snow,360,2013-04-09 21:58:00
4:01 PM,12.2,6.8,79,30.05,1.8,North,24.2,-,0.00,Snow,Light Snow,360,2013-04-09 22:01:00
4:08 PM,14.0,6.8,73,30.05,2.0,North,24.2,-,0.00,Snow,Light Snow,360,2013-04-09 22:08:00
4:18 PM,14.0,6.8,73,30.05,0.2,North,23.0,-,0.00,Snow,Light Snow,10,2013-04-09 22:18:00
4:21 PM,14.0,6.8,73,30.05,0.2,North,23.0,-,0.00,Snow,Light Snow,10,2013-04-09 22:21:00
4:23 PM,14.0,6.8,73,30.05,2.0,North,23.0,-,0.00,Snow,Light Snow,10,2013-04-09 22:23:00
4:40 PM,14.0,6.8,73,30.04,1.0,North,21.9,27.6,0.00,Snow,Light Snow,360,2013-04-09 22:40:00
4:53 PM,14.0,6.1,71,30.23,1.2,North,21.9,28.8,0.00,Snow,Light Snow,360,2013-04-09 22:53:00
5:05 PM,14.0,6.8,73,30.07,0.8,North,19.6,-,0.00,Snow,Light Snow,350,2013-04-09 23:05:00
5:16 PM,12.2,5.0,73,30.08,2.0,North,19.6,-,0.00,Snow,Light Snow,350,2013-04-09 23:16:00
5:28 PM,12.2,6.8,79,30.08,1.5,North,19.6,-,0.00,Snow,Light Snow,10,2013-04-09 23:28:00
5:53 PM,12.9,3.9,67,30.27,1.8,North,19.6,-,0.00,Snow,Light Snow,10,2013-04-09 23:53:00
5:57 PM,12.2,5.0,73,30.09,2.0,North,17.3,-,0.00,Snow,Light Snow,10,2013-04-09 23:57:00
6:04 PM,12.2,5.0,73,30.10,1.2,North,17.3,-,0.00,Snow,Light Snow,10,2013-04-10 00:04:00
6:12 PM,12.2,6.8,79,30.09,1.2,North,17.3,-,0.00,Snow,Light Snow,10,2013-04-10 00:12:00
6:25 PM,12.2,6.8,79,30.10,0.8,North,17.3,-,0.00,Snow,Light Snow,10,2013-04-10 00:25:00
6:28 PM,12.2,6.8,79,30.10,0.8,North,17.3,-,0.00,Snow,Light Snow,10,2013-04-10 00:28:00
6:53 PM,12.0,6.1,77,30.30,0.5,North,17.3,-,0.01,Snow,Light Snow,360,2013-04-10 00:53:00
6:57 PM,12.2,6.8,79,30.12,0.2,North,16.1,-,0.00,Snow,Light Snow,360,2013-04-10 00:57:00
7:07 PM,12.2,6.8,79,30.12,0.5,North,16.1,-,0.00,Snow,Light Snow,360,2013-04-10 01:07:00
7:23 PM,12.2,6.8,79,30.12,0.8,North,16.1,-,0.00,Snow,Light Snow,360,2013-04-10 01:23:00
7:28 PM,12.2,6.8,79,30.12,0.8,North,16.1,-,0.00,Snow,Light Snow,360,2013-04-10 01:28:00
7:53 PM,12.0,6.1,77,30.31,2.0,North,19.6,-,0.00,Snow,Light Snow,360,2013-04-10 01:53:00
8:02 PM,12.2,6.8,79,30.14,1.2,North,16.1,-,0.00,Snow,Light Snow,10,2013-04-10 02:02:00
8:15 PM,12.2,6.8,79,30.14,2.0,North,17.3,-,0.00,Snow,Light Snow,10,2013-04-10 02:15:00
8:21 PM,12.2,5.0,73,30.14,3.0,North,17.3,-,0.00,Snow,Light Snow,10,2013-04-10 02:21:00
8:53 PM,12.0,6.1,77,30.32,2.5,North,17.3,-,0.00,Snow,Light Snow,10,2013-04-10 02:53:00
9:06 PM,10.4,5.0,79,30.14,1.5,North,19.6,-,0.00,Snow,Light Snow,360,2013-04-10 03:06:00
9:13 PM,10.4,6.8,85,30.14,1.5,North,19.6,-,0.00,Snow,Light Snow,360,2013-04-10 03:13:00
9:53 PM,10.9,5.0,77,30.34,1.8,North,21.9,-,0.00,Snow,Light Snow,360,2013-04-10 03:53:00
10:05 PM,10.4,5.0,79,30.15,1.0,North,16.1,-,0.00,Snow,Light Snow,350,2013-04-10 04:05:00
10:53 PM,10.0,5.0,80,30.33,1.2,North,13.8,-,0.00,Snow,Light Snow,350,2013-04-10 04:53:00
11:18 PM,8.6,3.2,79,30.13,3.0,North,13.8,-,0.00,Snow,Light Snow,350,2013-04-10 05:18:00
11:53 PM,9.0,3.9,80,30.32,6.0,North,9.2,-,0.00,,Haze,350,2013-04-10 05:53:00